Home > Weather > Provincetown > Past weeks

Flag for U.S.A. Weather for the Past 2 Weeks in Provincetown, Massachusetts, U.S.A.

Now
39 °F

Passing clouds.


Feels Like: 30 °F
Forecast: 31 / 39 °F
Wind: 18 mph from East

Location: Provincetown Weather Reporting Station

Current Time: Feb 8, 2016 at 12:09:06 AM

Latest Report: Feb 7, 2016 at 10:56 PM


Visibility: 10 mi

Pressure: 30.03 "Hg

Humidity: 73%

Dew point: 31 °F

Location of ProvincetownLocation

Historic Weather in Provincetown — Graph

°F

Provincetown Temperature Yesterday

Maximum temperature yesterday: 41 °F (at 12:56 PM)
Minimum temperature yesterday: 33 °F (at 6:56 AM)
Average temperature yesterday: 37 °F

High & Low Weather Summary for the Past Weeks

 TemperatureHumidityPressure
High52 °F (Feb 1, 11:56 AM)100% (Feb 3, 11:56 PM)30.42 "Hg (Feb 3, 11:56 PM)
Low23 °F (Jan 28, 5:56 AM)44% (Jan 24, 6:35 PM)29.34 "Hg (Jan 29, 12:56 PM)
Average39 °F77%30.00 "Hg
* Reported Jan 23 11:15 PM — Feb 7 9:56 PM, Provincetown, Weather by CustomWeather, © 2016

Note: Actual official high and low records may vary slightly from our data, if they occured in-between our weather recording intervals... More about our weather records

Advertising

Provincetown Weather History for the Previous 24 Hours

 ConditionsComfort  
Time TempWeatherWind HumidityBarometerVisibility
9:56 PM
Sun, Feb 7
39 °FPassing clouds.18 mph70%30.05 "Hg10 mi
8:56 PM39 °FClear.13 mph73%30.08 "Hg10 mi
7:56 PM39 °FClear.10 mph70%30.11 "Hg10 mi
6:56 PM39 °FClear.10 mph70%30.11 "Hg10 mi
5:56 PM38 °FClear.8 mph76%30.13 "Hg10 mi
4:56 PM38 °FSunny.5 mph79%30.11 "Hg10 mi
3:56 PM40 °FSunny.7 mph68%30.12 "Hg10 mi
2:56 PM41 °FSunny.3 mph62%30.14 "Hg10 mi
1:56 PM41 °FSunny.7 mph65%30.16 "Hg10 mi
12:56 PM41 °FSunny.No wind55%30.17 "Hg10 mi
11:56 AM39 °FSunny.5 mph67%30.14 "Hg10 mi
10:56 AM39 °FSunny.6 mph65%30.16 "Hg10 mi
9:56 AM38 °FSunny.8 mph68%30.19 "Hg10 mi
8:56 AM37 °FSunny.9 mph70%30.19 "Hg10 mi
7:56 AM35 °FSunny.12 mph75%30.20 "Hg10 mi
6:56 AM33 °FSunny.9 mph78%30.18 "Hg10 mi
5:56 AM34 °FClear.10 mph79%30.16 "Hg10 mi
4:56 AM34 °FClear.14 mph79%30.18 "Hg10 mi
3:56 AM34 °FClear.13 mph82%30.19 "Hg10 mi
2:56 AM35 °FClear.15 mph78%30.18 "Hg10 mi
1:56 AM35 °FClear.16 mph78%30.20 "Hg10 mi
12:56 AM35 °FClear.15 mph78%30.22 "Hg10 mi
Weather by CustomWeather, © 2016

See weather overviewHow to use our weather pages